Orbital Elements at Epoch 2459000.5 (2020-May-31.0) TDB
Reference: JPL 6 (heliocentric ecliptic J2000)
Element | Value | Uncertainty (1-sigma) | Units |
e | .1333919326198031 | 9.5658e-08 | |
a | 2.394021306448683 | 2.0954e-08 | au |
q | 2.074678177648507 | 2.2475e-07 | au |
i | 1.637370476642154 | 8.6006e-06 | deg |
node | 308.7321321209307 | 0.00034115 | deg |
peri | 253.3532511181566 | 0.00034442 | deg |
M | 305.2915168635072 | 3.7059e-05 | deg |
tp | 2459206.109234674775 (2020-Dec-22.60923467) | 0.00013882 | TDB |
period | 1352.977093118219 3.70 | 1.7763e-05 4.863e-08 | d yr |
n | .2660798928755731 | 3.4933e-09 | deg/d |
Q | 2.713364435248858 | 2.3749e-08 | au |
|
| | Orbit Determination Parameters
Additional Information
|